Location: Rounton
(54.4000°N, 1.3500°W)
Time: 22:12:26
(UTC+00:00)

Vanguard 1 - Pass Details

Date: 29 November 2021
Orbit: 652 x 3830 km, 34.2° (Epoch: 16 January)

Event Time Altitude Azimuth Distance (km) Brightness Sun altitude
Rises 01:08:33 0° 222° (SW) 7,833 - -54.2°
Reaches altitude 10° 01:14:41 10° 214° (SW) 6,918 - -53.7°
Maximum altitude 01:33:26 33° 161° (SSE) 4,829 - -52.1°
Exits shadow 01:38:09 30° 140° (SE) 4,739 13.3 -51.6°
Drops below altitude 10° 01:48:06 10° 106° (ESE) 5,463 14.0 -50.7°
Sets 01:52:09 0° 98° (E) 6,073 14.4 -50.2°
